Theta_e
313 316 316 317 316 314 313 313 312 313 313 312 312 313 313 312 311 311 311 311 310 310 310 312 310 310 310 309 310 309 309 310 309 310 310 310 310 310 310 310 310 310 310 310 309 309 309 308 308 308 307 306 306 306 306 305 305 304 304 303 302 302 301 300 300 300 300 299 298 297 297 297 296 295 295 295 295 295 295 295 295 295 295 295 294 294
311 314 316 316 314 313 312 313 312 312 312 312 313 313 313 312 311 311 311 311 310 309 311 312 311 310 310 310 310 310 310 310 310 310 311 311 311 311 311 310 310 310 311 311 310 309 308 308 308 307 307 306 306 306 306 305 305 305 304 303 303 302 300 300 300 300 300 300 300 299 299 298 297 296 296 295 295 295 295 295 295 294 295 294 294 294
313 314 314 313 312 312 312 312 312 312 312 313 313 313 314 312 312 312 312 312 311 311 313 314 312 310 310 311 310 310 311 310 311 311 311 311 311 311 311 312 311 311 311 311 311 310 308 307 307 307 307 306 307 306 306 306 305 305 304 303 303 301 301 300 300 300 300 300 300 300 299 298 297 297 296 296 295 295 295 295 294 294 294 294 294 294
317 318 316 311 311 312 312 312 312 313 313 314 314 313 314 312 312 313 313 316 314 311 313 313 311 310 311 311 310 310 310 310 311 311 312 312 311 311 311 312 311 311 312 311 311 312 309 307 306 305 306 305 306 306 305 306 305 304 304 304 303 302 301 301 300 300 300 300 299 299 298 298 297 296 296 295 295 295 295 295 294 294 294 294 294 294
316 319 317 312 312 312 313 312 312 313 313 314 314 313 313 312 312 312 313 316 314 314 317 314 312 314 316 316 316 314 310 310 311 310 311 311 311 312 311 312 312 311 311 311 311 311 310 311 307 303 305 305 304 305 305 305 305 305 304 304 303 302 301 300 300 300 299 299 298 298 297 297 296 296 295 295 295 294 294 295 295 295 294 294 294 294
314 316 314 313 314 312 313 313 314 316 313 313 315 314 313 313 313 312 313 313 314 319 318 314 315 317 318 319 323 323 317 313 312 311 312 312 311 311 312 312 312 311 311 311 311 310 311 311 307 303 304 304 303 305 306 306 305 305 304 304 303 301 301 300 300 299 299 299 298 297 297 296 295 295 295 295 295 294 294 295 295 295 295 295 295 294
314 314 312 314 316 315 314 314 315 315 312 314 319 319 315 312 313 314 314 313 317 321 315 315 321 318 316 318 323 325 321 320 318 315 315 313 311 311 313 312 311 311 311 311 312 311 310 310 309 305 303 302 304 306 306 305 305 305 304 303 303 302 301 300 300 299 299 298 298 298 297 297 296 295 295 295 295 295 295 295 295 295 296 296 296 295
315 314 312 312 313 315 315 314 315 313 313 316 317 320 319 316 316 315 313 314 317 319 315 316 319 318 317 317 319 319 317 320 319 316 315 312 311 312 312 312 312 312 311 312 313 311 310 311 310 307 304 304 306 306 306 305 305 304 304 303 302 302 301 300 300 299 299 299 298 298 297 297 297 296 296 296 295 295 295 295 295 295 295 295 296 295
315 315 316 315 313 316 316 315 317 314 313 317 314 315 316 316 316 314 314 316 315 316 318 316 316 319 320 317 318 316 314 320 318 315 314 311 313 314 313 313 313 313 312 312 312 312 313 311 307 305 305 307 307 306 305 305 305 304 303 303 302 301 301 300 299 299 299 299 298 298 297 297 297 297 297 296 295 295 294 294 294 294 294 294 295 295
312 314 317 318 317 317 314 316 321 316 314 316 314 315 317 319 319 315 316 318 318 319 319 318 317 319 321 319 321 316 316 322 319 315 314 312 314 314 313 314 313 313 313 311 310 312 314 308 303 304 305 305 306 305 305 304 304 304 303 302 301 301 300 299 299 299 299 298 298 298 297 297 297 296 296 296 295 295 294 294 294 293 294 294 294 294
311 309 312 316 316 316 316 316 315 315 316 314 314 318 320 321 320 318 320 319 319 320 320 321 319 318 320 321 323 321 321 324 319 319 321 318 318 319 318 316 314 313 311 310 309 312 312 305 301 302 303 305 306 304 304 303 303 303 302 301 301 300 300 299 299 299 299 298 298 298 297 297 297 296 296 295 295 294 294 293 293 293 293 293 293 294
310 309 312 316 318 317 316 314 310 311 313 313 317 321 321 322 319 320 322 319 319 324 322 321 317 316 320 319 320 321 321 321 318 319 325 325 325 326 324 320 316 313 309 309 310 311 314 312 309 307 303 304 305 304 303 302 302 302 301 301 300 299 299 299 298 298 298 298 298 298 298 297 297 297 296 296 295 294 294 294 293 293 292 292 292 293
316 314 313 314 315 314 314 315 314 312 311 312 318 318 316 321 320 320 322 320 321 323 319 316 315 315 317 316 317 319 317 317 315 316 320 323 324 322 319 316 314 310 308 311 312 313 316 316 319 315 305 302 303 303 303 302 301 301 300 300 299 298 298 298 298 298 298 298 298 297 297 297 297 297 297 296 295 295 294 294 293 292 292 292 292 292
321 319 313 310 313 314 314 314 315 316 314 312 315 317 317 320 321 322 324 321 321 322 316 313 316 317 317 318 320 317 313 316 316 315 316 317 316 315 313 312 311 310 310 312 313 314 315 315 316 312 302 299 302 302 302 301 301 300 300 299 298 298 298 298 298 298 298 298 298 297 297 297 297 297 297 296 296 295 295 294 293 293 293 292 292 292
320 321 318 314 316 316 312 312 317 320 317 312 315 318 318 321 324 324 326 324 322 323 316 311 316 321 319 320 322 317 316 319 318 316 315 314 312 311 313 315 315 314 313 313 312 311 312 312 311 305 300 300 302 302 301 300 299 299 299 298 298 297 297 297 297 297 297 297 297 297 297 297 297 297 296 296 296 296 295 295 294 294 293 293 293 293
316 321 321 316 315 315 313 315 318 320 318 314 316 318 317 321 323 320 323 325 322 323 318 314 319 322 318 316 318 317 317 317 316 315 314 314 313 312 318 322 321 320 319 315 312 310 309 309 304 300 300 302 302 302 301 300 299 298 298 298 297 297 297 297 297 296 297 296 296 297 296 297 296 296 296 296 296 296 295 295 294 294 294 294 294 293
317 320 320 314 313 315 315 315 314 317 318 315 315 318 316 318 319 317 320 321 319 321 321 319 321 319 317 316 316 318 319 317 318 318 315 314 314 315 320 324 323 323 321 316 314 311 311 313 307 301 301 303 302 302 301 301 301 299 299 298 298 297 297 297 296 296 296 296 296 296 296 296 296 296 296 296 296 295 295 294 294 294 294 294 294 293
318 318 319 315 314 313 309 310 313 314 315 316 318 319 314 315 317 317 320 321 319 320 320 320 321 319 319 320 316 318 322 319 318 320 317 316 317 318 320 322 320 318 317 316 315 312 312 316 310 301 302 305 304 302 301 301 302 300 300 299 298 298 298 297 297 296 296 296 296 296 296 296 296 296 296 295 295 295 294 294 294 294 294 293 293 293
318 315 319 317 315 314 308 310 315 312 310 314 318 316 315 318 319 318 321 321 320 321 321 320 321 319 319 319 316 318 320 318 320 321 319 316 316 317 318 318 316 314 314 315 314 311 310 312 306 299 301 305 305 304 303 302 301 300 300 300 299 299 299 298 297 296 296 296 295 296 295 295 296 296 295 295 295 295 295 294 294 293 293 293 293 292
320 316 319 317 314 314 312 313 318 316 311 310 312 313 315 317 318 319 320 320 319 320 321 322 321 320 319 318 318 319 321 322 323 322 318 316 315 315 314 313 313 312 311 310 309 307 306 305 302 299 302 304 304 304 303 302 302 301 300 300 300 299 299 298 298 297 296 296 296 296 295 295 296 295 295 295 295 295 295 294 294 294 294 293 293 292
319 317 318 318 315 314 314 316 318 319 317 314 313 314 314 313 317 318 316 317 318 318 320 321 321 321 321 321 318 318 321 323 322 318 316 316 315 314 314 313 312 310 308 305 304 303 301 300 299 299 301 301 301 300 300 301 301 301 300 300 299 299 298 298 297 297 297 296 296 295 295 295 295 295 295 295 295 295 295 295 295 295 294 294 293 293
317 317 318 319 318 315 316 318 317 319 322 319 317 317 315 314 317 317 316 317 318 316 318 320 319 321 323 322 317 314 317 319 319 317 314 314 315 315 315 311 309 306 303 301 299 298 297 296 296 296 296 297 297 297 297 298 299 299 299 299 299 299 298 298 297 297 297 296 296 295 295 295 295 295 295 295 295 295 295 295 295 294 294 294 293 293
316 318 318 319 319 317 317 318 317 317 318 317 316 316 317 315 315 316 318 318 317 317 317 318 318 320 321 320 317 315 315 315 316 315 314 314 316 314 310 305 302 300 298 297 296 295 295 294 294 294 294 294 295 295 296 297 297 297 297 298 298 298 298 298 298 297 297 297 296 296 295 295 295 295 294 294 295 295 295 295 294 294 294 293 293 292
314 317 318 319 320 320 320 320 316 313 314 316 316 316 316 316 316 317 316 316 318 318 317 320 320 320 325 325 319 317 315 314 315 315 312 311 310 307 302 299 297 296 295 294 294 293 293 293 293 293 293 294 294 294 295 296 296 296 296 296 297 297 297 298 298 298 297 297 297 297 296 296 295 295 295 294 294 295 295 295 294 293 293 293 292 292
313 316 319 319 320 320 320 320 316 313 314 317 317 317 316 316 317 317 316 316 318 318 318 320 319 320 327 328 320 316 316 315 314 310 305 303 301 299 297 296 295 294 294 293 293 293 293 292 293 293 293 293 293 294 294 295 295 295 295 295 295 295 296 296 297 297 297 297 297 297 296 296 296 295 295 295 295 295 295 294 293 293 293 292 292 291
313 315 317 317 319 319 319 319 317 316 315 314 314 316 315 315 316 316 316 317 317 318 319 319 318 318 321 321 317 316 315 313 309 301 297 298 297 295 295 295 294 294 293 293 292 292 292 292 292 292 292 292 293 293 294 294 294 294 294 294 294 295 295 295 295 296 296 297 297 297 296 296 295 295 295 295 295 295 294 294 293 293 293 292 292 291
313 314 316 316 317 317 317 317 316 316 315 314 314 315 314 314 314 314 315 316 316 316 316 316 316 316 315 315 314 311 307 305 301 296 294 296 294 294 294 293 293 293 292 292 292 292 292 292 292 292 291 292 292 292 293 293 293 293 292 293 293 294 294 294 294 294 295 296 296 296 296 296 296 296 295 295 295 295 294 294 293 293 293 292 292 291
311 312 314 314 314 315 315 314 314 314 314 314 314 314 314 314 313 313 314 313 314 315 315 315 314 314 315 313 308 302 298 297 296 294 293 293 293 293 293 293 293 292 292 292 292 292 291 291 292 291 291 291 291 292 292 293 293 292 292 292 292 293 293 293 293 293 293 294 295 295 296 296 296 296 296 295 295 294 294 294 294 293 293 292 291 291
309 309 310 311 311 312 311 310 310 310 311 312 312 313 313 313 313 314 313 313 313 314 314 314 313 314 313 307 300 296 294 294 294 294 292 292 292 293 292 292 292 292 292 292 291 291 291 291 291 291 290 290 291 291 291 292 292 292 291 291 291 292 292 292 293 292 292 292 293 294 295 295 296 296 296 296 295 294 294 294 293 293 292 292 291 291
308 307 309 309 308 307 307 307 307 308 309 309 310 311 312 312 312 312 312 313 313 313 314 313 313 314 308 298 295 295 293 292 293 293 293 292 292 292 292 292 292 292 292 292 291 291 291 291 291 290 290 290 290 290 291 291 292 291 290 290 290 291 291 291 292 292 291 292 291 292 292 293 294 295 295 295 295 294 294 293 293 293 292 292 291 290
308 307 306 306 305 305 305 305 306 306 307 307 308 309 310 310 310 309 309 310 310 311 312 312 314 314 303 293 293 294 292 293 293 292 293 292 292 292 292 292 292 292 292 292 292 291 291 290 291 290 290 289 290 290 290 291 292 291 290 290 290 290 290 290 291 291 291 291 291 291 290 291 292 293 294 294 294 294 294 293 293 292 292 291 290 290
305 304 303 303 303 303 303 304 304 304 305 305 305 306 305 305 305 305 305 307 308 309 311 312 313 308 298 292 292 292 292 293 292 292 292 293 292 292 292 292 292 292 292 292 292 291 291 290 290 290 290 289 289 290 290 291 291 291 290 289 289 290 290 290 290 290 290 290 290 290 290 289 290 291 292 293 293 294 293 293 292 292 291 291 290 289
301 300 300 300 301 302 302 302 303 303 303 302 302 304 304 304 304 304 305 305 303 304 308 308 304 297 293 293 293 292 292 292 291 291 291 292 292 293 293 293 292 292 292 292 292 291 291 290 290 290 290 289 290 290 290 290 291 291 290 289 289 290 289 289 290 289 289 289 289 290 289 289 289 289 290 291 291 292 292 292 291 291 291 290 290 289
300 299 299 299 300 300 300 300 300 300 300 300 301 303 304 304 304 305 303 299 297 298 299 298 296 294 293 293 292 292 291 291 291 292 291 292 293 293 293 293 293 292 292 292 292 291 291 290 290 290 290 290 290 290 290 290 291 291 290 289 289 289 289 289 289 289 289 289 289 289 289 289 288 288 288 289 290 290 290 290 291 290 290 290 289 288
297 297 297 298 298 297 298 299 298 298 298 299 299 299 299 300 300 300 298 295 295 296 294 293 294 294 293 292 292 292 292 291 291 292 291 292 293 293 293 293 293 292 292 292 292 291 291 290 289 289 289 289 290 290 290 290 290 290 290 289 289 289 289 289 289 289 288 288 288 289 289 289 289 288 288 288 288 289 289 290 290 289 289 289 288 287
297 296 296 297 298 298 298 299 298 298 298 299 298 296 296 297 297 297 298 296 295 295 293 292 294 294 293 293 293 292 292 291 291 291 291 292 293 294 294 293 293 293 292 292 292 291 291 290 289 289 289 289 290 290 289 289 290 290 289 289 289 289 289 289 289 288 288 288 288 288 288 288 288 288 288 288 287 288 288 288 288 288 288 287 287 287
297 297 297 298 298 298 298 299 299 298 300 301 300 297 295 294 295 297 298 296 294 294 294 293 294 295 293 293 293 292 292 291 290 291 292 293 294 295 294 293 293 293 292 292 292 291 291 290 290 289 289 289 289 289 289 289 289 289 288 288 288 288 289 288 288 288 287 287 287 287 287 288 288 288 288 287 287 287 287 287 287 287 287 286 286 285
296 297 298 298 299 300 300 301 301 300 300 302 300 297 295 295 295 296 296 295 292 291 292 294 295 295 294 294 293 293 292 291 290 290 292 294 295 295 294 293 292 292 291 291 291 291 291 290 289 289 289 289 289 289 289 288 288 288 288 288 288 288 288 288 288 288 287 287 287 287 287 287 287 287 287 287 286 286 286 286 286 286 285 285 285 285
296 297 298 299 299 301 301 300 299 299 299 300 299 297 295 295 295 295 296 297 292 289 291 295 295 295 295 294 293 292 292 291 289 289 291 294 294 294 293 292 292 291 291 291 291 291 290 289 289 288 288 288 289 288 288 288 288 288 287 287 287 287 287 287 287 287 287 287 287 286 286 286 286 286 287 287 287 286 285 285 285 285 284 284 284 284
296 296 297 298 299 299 299 297 296 296 298 299 298 297 295 294 294 295 297 296 292 290 293 296 295 295 295 293 293 293 292 291 289 289 290 291 291 291 291 291 291 291 290 290 290 290 289 288 288 287 287 287 288 288 288 288 287 287 287 287 287 287 287 287 287 287 287 287 287 286 286 286 286 286 286 286 287 286 285 285 284 284 284 283 283 283
296 295 294 295 296 295 296 295 294 295 297 299 297 296 295 293 293 295 296 293 290 291 295 296 295 295 294 293 293 292 292 291 290 290 290 290 290 290 290 289 290 290 290 290 289 288 288 287 287 286 286 287 287 287 287 287 287 286 286 286 286 286 286 286 286 286 286 287 287 286 285 285 285 285 285 286 286 286 286 285 284 283 283 283 282 282
294 294 294 294 294 294 295 295 294 294 296 298 297 294 293 292 294 296 295 292 290 291 294 295 295 294 294 293 292 292 291 291 290 290 290 290 290 290 290 290 289 290 289 288 288 287 286 286 286 286 285 285 286 286 286 286 286 285 285 285 285 285 285 285 285 285 285 286 286 285 285 285 285 285 285 285 285 286 286 285 284 283 282 282 282 281
293 293 293 294 294 293 293 294 294 294 294 295 295 293 293 295 297 297 294 291 291 292 293 294 294 294 293 292 292 292 291 290 290 289 289 289 289 290 290 290 289 288 287 286 285 285 285 285 284 284 284 284 285 285 285 285 285 284 284 284 284 284 284 284 284 283 284 285 284 284 284 284 284 284 284 285 285 285 285 285 285 283 282 281 281 280
293 293 292 293 293 292 292 292 295 297 295 293 293 292 293 294 294 293 291 290 292 293 293 293 292 292 291 291 291 291 291 290 290 289 289 288 289 289 289 288 287 285 285 284 284 284 284 283 283 283 283 283 284 284 284 284 283 283 283 283 283 283 283 283 282 283 283 283 283 283 283 283 284 284 284 284 284 284 284 284 284 283 282 281 280 279
293 293 292 292 292 292 292 292 294 295 294 293 292 291 292 291 291 291 291 291 291 292 291 289 289 289 290 290 290 291 290 290 290 289 288 288 288 288 287 286 284 283 283 283 283 283 282 282 282 282 282 282 282 282 282 282 282 282 282 282 282 282 282 282 281 282 282 282 282 282 282 282 282 282 283 283 284 284 284 284 283 283 282 281 280 279
291 291 291 291 291 291 291 291 291 291 291 291 291 290 290 290 290 290 290 289 290 289 288 288 288 288 289 289 289 289 289 288 288 287 287 286 285 284 284 283 282 282 281 281 281 281 281 280 280 280 280 280 281 281 281 281 281 281 281 281 281 281 281 280 280 281 281 281 281 281 280 280 280 281 282 283 283 283 283 283 283 282 282 280 279 279
290 290 290 290 290 290 290 290 290 290 291 290 290 290 290 290 289 289 288 288 288 287 287 286 286 286 286 286 285 285 284 284 284 283 283 282 282 282 282 281 281 280 280 280 280 280 279 279 279 279 279 279 279 279 280 280 279 279 279 279 279 279 279 279 279 280 280 280 279 279 279 279 279 280 281 282 282 283 283 283 282 282 281 280 279 279
290 290 290 290 290 290 290 290 290 290 290 290 289 289 289 289 289 288 287 286 285 285 283 281 281 282 282 281 281 281 280 280 280 280 280 280 280 280 280 280 279 279 279 278 278 278 278 277 277 277 277 278 278 278 278 278 278 278 278 278 277 278 277 277 278 278 278 278 277 277 277 277 278 278 279 281 282 282 282 282 282 281 281 281 280 280
290 290 291 290 290 289 289 290 290 290 290 289 289 289 289 288 287 286 285 283 282 281 279 278 278 278 278 278 278 278 278 278 278 278 278 278 278 278 278 278 277 277 277 277 276 276 276 276 276 276 276 276 277 277 276 276 276 276 276 276 276 276 276 276 276 276 276 275 275 275 275 276 276 277 278 280 281 281 281 282 282 281 281 282 282 282
289 290 290 290 290 289 289 289 289 289 289 289 289 288 286 283 282 282 281 279 278 277 277 276 276 276 276 277 277 277 277 277 276 276 276 276 276 276 276 276 275 275 275 275 275 275 274 274 275 275 275 275 275 275 275 274 274 274 274 274 274 274 274 274 274 273 273 273 273 274 274 274 275 276 277 278 279 280 281 281 281 281 281 282 282 282
289 289 289 289 289 289 289 289 289 289 289 289 288 283 279 277 277 278 278 276 276 275 275 275 275 275 275 275 275 275 275 275 274 274 274 274 274 274 274 273 273 273 273 273 273 273 273 273 273 273 273 273 273 273 272 272 272 272 272 272 272 272 272 271 271 271 272 272 272 272 273 273 274 274 275 276 277 278 279 280 280 281 281 281 282 282
Wind_Speed
3 3 3 6 11 14 12 11 14 13 6 4 3 5 7 8 9 9 12 11 1 4 8 10 18 19 14 14 13 13 11 11 18 20 18 15 12 10 12 15 16 18 19 19 24 27 25 25 26 27 29 29 30 33 34 36 38 41 40 40 42 43 42 42 42 42 43 43 40 38 41 44 44 44 45 46 48 49 49 49 48 48 48 46 46 45
2 5 7 12 16 11 6 7 9 8 6 5 5 7 7 6 12 11 11 13 2 1 7 7 17 20 14 13 12 12 14 14 17 20 20 18 14 12 12 17 19 17 16 16 18 21 18 17 19 23 26 27 29 32 35 38 40 41 41 42 43 42 42 44 46 45 46 48 47 46 48 49 47 47 49 49 51 52 51 50 50 49 48 48 47 46
2 5 11 15 11 4 3 1 2 4 6 7 5 6 7 5 10 10 8 10 3 1 7 7 16 19 13 14 14 15 17 17 15 15 19 19 16 15 15 17 17 16 17 16 14 13 11 14 19 22 25 29 31 32 35 38 39 39 41 43 42 41 44 46 47 47 47 48 48 46 44 43 42 43 47 48 49 51 50 50 50 49 49 49 48 47
5 6 12 14 7 4 6 1 3 2 5 6 5 5 8 5 6 8 4 6 4 3 7 10 16 17 12 14 15 16 17 16 14 13 16 17 16 19 19 15 14 16 18 18 15 11 8 11 15 19 24 28 29 30 33 36 37 38 42 45 44 43 45 46 46 47 46 43 41 38 34 34 35 35 39 40 41 45 46 47 48 49 49 49 48 48
9 7 6 6 6 8 8 4 2 5 6 7 7 6 10 10 10 10 5 7 6 5 5 7 14 13 6 8 8 9 10 11 13 13 13 17 20 19 14 14 15 16 17 17 17 14 8 8 11 16 21 23 26 30 34 36 38 40 43 44 44 43 43 44 45 45 41 37 36 34 28 26 29 28 31 35 37 40 42 45 48 49 49 49 49 49
10 6 3 3 4 7 6 6 6 7 9 7 6 11 16 15 11 11 9 7 6 5 4 5 8 10 2 6 6 6 4 7 9 10 14 18 19 13 9 13 14 14 14 12 15 16 9 7 9 13 17 20 24 30 34 36 37 39 40 40 41 42 42 43 44 43 41 39 38 38 33 30 30 29 33 40 41 41 44 47 48 49 49 50 50 50
5 4 3 5 6 6 6 6 8 9 7 8 5 11 15 11 9 10 9 4 2 4 3 4 1 9 6 3 8 8 5 9 9 9 15 17 13 9 8 12 11 12 12 9 11 12 9 7 7 10 15 19 25 30 31 32 34 36 36 38 40 41 42 42 43 43 43 42 41 43 42 39 38 36 38 43 42 43 47 47 46 48 49 50 50 50
4 2 1 3 4 6 5 6 7 10 5 7 4 6 8 7 8 7 5 4 4 3 4 1 4 6 12 4 5 7 6 8 11 12 16 13 9 10 10 12 11 13 12 9 9 9 7 7 8 11 16 21 26 28 27 28 32 34 35 36 38 40 40 41 42 44 45 45 44 44 43 40 40 39 37 37 38 40 43 43 44 46 47 48 49 49
4 4 5 5 5 4 6 5 6 12 7 6 2 4 4 5 5 3 4 4 2 4 4 2 4 2 12 6 2 0 4 7 13 14 14 10 9 10 11 12 12 14 14 8 6 8 8 7 10 14 18 21 23 24 24 27 29 32 34 34 36 39 40 40 42 44 46 46 44 44 42 39 39 37 33 32 34 36 38 40 42 42 44 46 47 48
1 4 6 8 5 6 7 4 8 12 7 4 5 5 4 3 2 3 3 3 2 3 5 5 5 3 11 7 4 3 2 7 10 9 9 9 9 10 10 12 11 12 12 6 7 8 8 10 12 14 16 18 19 21 22 24 25 27 31 33 35 38 39 40 42 44 46 46 44 43 43 41 38 35 31 29 32 35 36 38 39 40 42 44 45 47
2 1 3 5 5 5 5 3 4 8 6 3 5 4 5 4 4 4 1 3 3 6 6 10 12 7 7 5 4 3 4 6 5 6 7 7 9 9 9 10 10 9 8 8 8 7 8 11 12 11 12 15 17 17 18 20 22 24 28 31 34 37 38 39 42 44 46 46 46 45 46 44 40 36 33 32 33 36 36 37 38 39 40 42 44 46
2 1 2 3 2 4 5 3 2 1 3 3 3 3 3 4 4 4 4 3 1 7 6 10 12 9 8 6 1 4 6 5 5 6 7 8 8 9 9 9 9 7 6 7 8 7 7 8 9 9 10 13 14 15 16 18 20 22 26 29 31 33 35 37 40 43 45 46 47 46 45 44 42 39 38 38 37 38 39 39 39 38 38 39 41 43
3 5 4 2 2 5 6 2 3 3 3 4 3 3 0 4 3 3 3 1 4 8 5 5 6 5 11 8 3 9 12 10 9 7 8 9 8 10 11 9 9 8 7 6 7 7 7 7 6 6 10 12 13 14 15 16 17 20 23 27 30 32 34 36 38 41 43 44 46 45 43 42 41 39 40 40 38 39 40 40 39 39 40 40 41 44
4 4 2 2 3 4 8 6 3 2 5 6 5 5 4 2 2 4 3 2 5 6 3 2 4 4 9 6 7 13 13 11 7 7 8 9 10 11 10 10 10 9 8 6 6 7 7 9 8 7 9 13 16 15 15 15 16 18 20 24 27 28 31 34 37 40 42 44 45 43 42 41 40 40 41 41 40 40 40 41 41 43 43 44 46 49
4 7 4 6 2 5 10 10 6 4 5 6 5 5 4 5 4 5 4 4 7 5 2 1 4 4 5 3 7 10 8 7 5 4 5 7 8 7 7 8 8 8 8 7 7 7 7 7 8 9 11 15 17 17 15 13 14 16 18 21 23 24 26 30 33 37 41 43 42 41 41 41 40 41 41 40 41 41 42 42 42 43 44 46 48 49
3 8 6 2 1 8 9 6 3 5 2 3 3 4 3 5 4 4 5 6 5 3 2 3 4 5 5 5 7 8 8 8 6 6 7 8 6 4 6 7 6 7 7 7 8 8 8 7 6 8 12 16 16 15 14 14 13 15 16 18 21 24 26 29 32 35 37 38 38 39 41 40 41 41 41 41 42 41 41 42 42 43 45 46 46 45
4 6 3 1 1 6 7 3 2 4 3 1 3 3 4 3 4 4 6 4 2 5 6 6 7 7 6 8 6 2 5 6 7 6 5 7 5 2 4 6 6 7 7 7 8 8 9 8 7 10 14 18 17 13 12 14 14 15 18 19 21 23 25 28 31 32 32 32 35 38 39 39 40 41 42 42 40 39 38 39 41 42 43 44 44 44
5 6 5 4 6 4 3 2 1 2 3 4 3 4 2 1 2 2 2 2 4 8 7 7 13 11 7 7 3 4 9 10 8 6 4 5 4 0 3 5 5 7 7 7 7 7 8 8 8 11 15 19 20 16 13 13 13 16 20 21 23 25 27 29 30 31 31 31 33 35 37 39 39 39 39 37 35 35 36 37 39 40 41 42 42 42
3 5 7 4 4 2 3 2 3 4 1 3 4 2 1 2 3 2 2 2 6 10 6 7 13 11 7 9 8 7 10 10 8 6 5 4 4 4 5 6 5 6 6 6 6 6 7 7 9 12 16 20 22 21 19 16 14 15 19 21 23 25 27 28 29 30 32 33 33 34 35 36 38 38 37 35 33 33 35 37 38 38 39 39 39 40
1 3 5 1 2 0 3 0 4 3 1 0 1 2 1 3 4 3 3 2 4 9 7 7 9 7 7 9 10 9 8 7 6 5 5 5 5 6 6 6 6 6 5 3 4 6 7 9 11 16 19 19 21 24 25 22 19 18 19 20 23 24 24 24 26 29 31 34 35 34 34 35 38 39 38 37 36 36 37 37 38 39 39 39 39 39
1 4 6 2 1 1 1 4 6 5 4 2 2 3 3 2 1 2 2 1 2 6 7 7 8 6 5 5 8 8 6 5 5 4 6 7 6 6 6 7 8 9 9 8 7 7 9 10 14 20 23 21 22 25 27 26 24 23 22 21 22 23 22 21 23 26 29 31 32 34 35 36 37 38 38 38 38 39 39 39 41 42 42 41 42 41
2 4 5 2 2 5 6 5 5 6 5 5 4 4 5 4 2 4 6 4 4 6 6 8 9 6 3 5 8 6 3 4 5 4 7 9 8 7 6 8 9 10 12 12 11 11 10 10 12 17 21 21 21 23 26 27 27 26 25 24 22 22 21 20 21 23 26 28 29 31 33 33 33 33 34 36 37 39 41 42 44 44 43 44 45 44
1 0 2 4 5 7 8 5 5 5 2 1 2 2 3 3 3 5 8 6 5 6 6 8 9 5 3 6 12 12 9 7 5 5 8 8 8 8 9 10 12 11 11 12 12 12 12 12 15 18 21 22 22 22 24 25 27 28 28 27 25 23 21 20 21 23 26 28 29 30 30 30 30 30 31 34 37 40 42 44 44 42 42 43 42 42
1 1 3 5 4 5 8 8 3 2 1 4 4 4 5 5 5 7 7 5 5 5 5 8 8 3 2 5 10 12 14 12 8 7 8 7 8 12 13 13 13 12 12 12 12 11 11 13 18 20 21 24 25 27 27 28 29 30 30 30 29 28 26 23 21 22 25 28 29 29 29 30 31 31 32 35 38 41 44 44 41 40 41 40 39 39
2 2 3 4 3 4 5 6 4 2 1 3 4 6 7 9 10 10 7 6 5 6 8 9 7 4 2 4 7 9 13 16 13 11 12 10 10 11 12 12 12 13 14 14 14 14 14 14 14 14 17 21 25 27 29 29 30 29 29 30 31 31 31 29 24 21 22 25 26 27 29 31 31 32 35 37 40 43 43 41 39 39 39 39 39 40
2 2 4 4 6 7 6 5 3 3 1 1 2 5 6 8 11 10 7 7 7 8 10 10 8 7 5 5 8 10 13 15 12 13 12 10 10 10 10 10 11 12 13 15 15 14 14 14 13 13 16 20 22 24 25 26 27 28 28 30 32 33 33 33 31 27 25 24 24 25 27 29 30 33 36 39 42 43 41 38 37 38 39 40 40 40
1 2 5 8 10 10 10 9 6 7 7 7 8 8 7 7 9 8 7 8 9 10 10 10 11 11 9 9 9 8 9 11 10 10 9 10 10 10 9 9 10 10 11 12 13 13 14 14 14 15 18 21 23 25 25 25 26 29 30 32 35 35 34 34 34 33 30 28 27 26 27 28 30 33 36 38 40 40 38 37 37 39 41 41 41 41
1 3 5 9 12 11 11 13 11 10 11 11 13 13 13 13 12 11 12 12 11 11 11 10 12 14 11 6 6 8 9 9 9 8 8 8 8 8 8 9 11 11 11 11 12 13 14 14 14 14 17 22 25 28 29 30 31 33 33 34 35 34 34 35 35 33 32 31 29 29 29 31 32 33 35 36 37 36 36 37 38 40 41 40 41 43
1 4 5 9 12 9 9 11 11 10 11 10 11 13 15 16 16 16 17 17 14 14 14 13 17 18 12 5 6 7 6 7 7 7 6 5 6 7 8 9 11 11 11 12 11 11 11 11 12 12 15 20 24 26 28 29 31 32 33 33 33 32 32 33 33 32 32 30 30 30 31 33 34 34 35 35 35 36 37 38 38 39 39 40 41 42
2 4 5 6 8 9 11 13 12 12 12 11 11 12 13 15 17 18 18 17 17 19 18 17 20 18 6 3 4 5 4 4 4 5 5 6 7 8 8 9 9 9 10 10 10 10 10 10 11 11 14 18 22 24 25 25 27 28 29 30 30 30 30 29 28 29 29 28 29 29 29 30 32 33 35 35 35 36 37 37 37 37 37 39 39 39
3 4 6 7 7 11 14 14 13 12 12 13 13 13 14 17 19 18 16 15 17 19 17 16 18 12 1 4 4 5 4 4 5 6 6 6 7 7 8 8 8 8 8 9 9 10 10 10 11 12 13 17 21 24 24 24 25 26 28 29 28 27 27 26 24 25 26 27 28 29 29 28 28 29 31 33 34 36 36 36 35 35 36 36 36 36
3 3 5 6 7 9 11 14 15 13 12 14 15 16 19 19 17 16 16 14 13 12 13 13 11 5 2 3 4 4 5 6 7 7 6 5 5 6 7 7 7 6 7 7 7 8 10 11 11 12 13 16 21 23 25 26 25 26 28 30 30 28 26 24 22 22 23 24 27 29 29 28 27 25 26 28 30 34 35 34 33 33 33 33 34 34
4 4 4 6 7 8 11 13 12 10 10 12 12 12 16 16 14 14 12 8 6 4 5 6 3 1 3 4 4 5 7 7 7 6 6 4 4 5 6 6 6 5 6 6 7 8 9 9 10 12 15 18 20 22 24 26 25 26 28 30 31 30 28 26 25 23 24 26 27 29 30 30 28 26 25 25 26 28 29 30 31 30 31 32 32 33
5 5 5 5 5 8 12 9 7 7 10 9 4 2 5 5 5 5 2 3 4 2 2 1 1 1 2 3 4 6 7 7 6 6 6 4 3 5 6 6 5 5 5 6 6 7 8 8 11 15 18 20 21 23 25 24 24 26 30 31 31 30 29 29 28 28 28 29 30 32 33 34 33 31 30 29 27 25 24 25 27 28 29 30 30 32
6 6 4 3 4 6 7 6 5 8 7 3 1 1 2 4 5 5 4 4 3 4 5 2 3 2 2 4 4 5 6 6 6 8 8 6 4 4 6 6 6 6 6 6 6 7 7 9 12 15 18 21 23 24 25 24 25 27 29 30 30 30 29 27 27 28 29 30 32 33 34 35 35 34 34 33 31 27 24 24 25 26 28 28 30 32
8 6 3 2 4 4 2 4 6 5 2 2 3 1 3 4 5 5 3 3 3 4 4 1 3 4 4 5 5 5 6 6 5 7 8 7 5 4 4 6 7 6 6 7 7 7 9 12 14 16 18 21 23 23 23 24 25 26 27 28 27 28 28 26 25 26 27 29 31 32 33 34 34 34 34 34 32 29 27 26 25 26 26 26 28 29
9 6 3 3 5 4 3 6 7 7 7 4 3 1 2 3 2 1 1 2 3 3 2 2 4 6 6 6 6 6 5 4 5 5 5 6 5 6 6 7 8 7 8 10 11 13 15 17 18 18 20 22 22 22 23 23 24 25 25 25 24 25 26 24 23 24 25 26 28 29 31 32 32 32 33 32 31 28 27 26 25 25 24 24 25 27
9 8 6 5 5 4 5 6 5 7 7 3 3 4 3 3 5 3 1 2 3 3 4 5 6 7 7 7 7 5 2 3 6 4 4 7 7 7 8 8 8 10 11 13 15 16 18 19 19 19 21 21 22 23 23 23 24 23 23 24 23 24 24 22 22 24 25 25 26 27 29 30 30 30 30 30 29 28 26 25 24 23 22 23 25 26
5 7 7 6 6 4 5 6 5 6 5 3 5 7 5 3 5 3 2 1 2 3 5 7 7 8 7 8 7 3 1 3 6 5 4 7 7 7 8 8 8 11 14 16 16 17 18 19 19 19 20 20 21 23 24 23 23 22 21 23 23 23 22 21 22 24 25 26 26 27 27 28 28 28 28 28 28 27 26 25 23 22 21 21 23 24
2 2 4 5 6 6 6 6 5 4 4 4 6 6 5 2 5 2 6 4 2 3 5 8 8 8 7 7 6 4 4 6 6 7 6 6 6 7 8 9 9 10 13 15 17 18 19 19 18 17 18 19 22 24 24 22 21 20 20 22 22 22 22 23 24 25 26 26 26 26 27 26 27 27 27 27 27 27 26 24 22 21 20 20 21 22
1 1 2 4 6 7 8 7 5 4 4 4 5 6 4 1 4 1 7 3 0 4 5 8 8 8 7 7 6 5 7 9 8 10 10 8 6 6 8 12 13 14 15 16 17 18 19 19 18 18 19 21 23 24 23 21 20 19 20 21 21 22 24 25 26 27 27 26 26 26 27 26 26 26 26 26 26 26 26 25 22 21 20 19 20 20
2 1 1 3 4 5 5 6 6 5 3 2 3 4 2 1 1 5 5 1 3 7 5 6 8 8 7 8 8 8 10 11 10 11 11 10 9 8 8 10 11 13 16 17 18 18 18 18 19 20 22 24 24 23 22 20 19 20 21 20 22 26 27 27 27 28 27 27 26 27 27 27 27 26 26 25 24 24 25 25 23 21 20 19 18 19
3 2 3 3 3 3 3 4 5 6 2 3 1 3 1 3 5 5 3 5 6 6 5 5 6 7 7 8 9 10 11 11 11 12 12 11 11 9 8 8 9 10 13 15 17 19 17 16 18 21 23 25 25 25 23 21 20 21 20 21 26 29 28 28 29 29 28 27 27 28 28 27 28 28 27 26 24 22 23 23 22 22 20 18 18 17
4 4 5 4 3 3 4 5 5 5 3 1 1 3 4 4 5 5 6 8 8 5 4 4 5 7 8 9 10 11 11 11 12 13 12 11 10 9 8 7 8 10 13 15 18 21 19 18 20 23 25 26 26 26 25 23 22 22 23 25 29 29 27 27 29 29 29 29 28 29 29 27 28 28 28 27 25 22 22 21 21 20 20 19 18 17
4 5 4 4 5 4 4 6 6 3 2 3 3 5 8 10 11 10 7 7 6 4 4 4 6 8 8 9 10 10 10 11 12 12 11 9 8 8 8 8 9 12 15 18 21 24 23 21 22 24 26 29 29 28 27 26 23 23 26 29 29 27 26 28 28 28 29 29 29 30 29 29 29 29 28 28 25 23 22 21 19 19 19 19 18 17
6 6 3 3 7 7 7 10 10 7 8 9 9 9 11 12 12 10 6 5 5 6 5 5 6 7 8 7 7 7 8 9 10 9 8 7 8 8 9 10 12 14 17 19 22 25 25 23 23 23 25 29 31 31 30 28 25 25 28 31 30 28 27 28 28 28 28 28 29 30 30 31 31 30 28 27 26 25 24 22 20 20 20 19 19 19
8 8 5 6 9 9 9 11 10 8 10 12 11 12 13 12 10 7 5 5 5 6 5 5 4 5 5 5 4 5 7 8 8 8 8 8 9 11 11 12 14 17 19 21 24 27 25 22 21 22 23 27 31 32 30 29 28 29 31 32 32 30 28 27 28 28 28 28 29 30 30 31 32 31 30 27 26 25 25 24 23 22 21 20 20 19
4 3 4 8 10 10 11 13 10 9 11 12 10 11 11 11 10 7 4 3 4 4 4 4 4 4 5 5 4 5 7 8 7 8 9 8 9 11 11 12 15 18 22 25 26 26 24 21 21 23 23 27 31 33 30 29 30 32 33 33 34 31 28 28 27 27 28 29 30 30 31 31 31 31 30 28 26 25 25 25 24 24 25 25 25 23
2 1 3 5 7 9 12 13 11 9 10 12 12 9 6 5 6 5 4 5 6 6 7 6 5 3 3 5 4 5 7 9 8 8 9 10 11 11 11 14 17 20 24 27 27 25 23 23 24 24 25 28 32 33 32 32 33 34 35 35 34 29 26 27 28 28 30 31 31 31 32 31 30 30 29 28 28 27 28 29 28 28 30 32 31 31
3 6 7 4 5 9 11 11 9 7 8 10 8 3 3 4 4 5 5 6 6 6 7 8 9 7 5 4 4 5 7 10 10 10 10 10 12 13 14 16 19 23 26 27 28 27 26 26 27 27 28 31 33 34 34 35 37 37 37 36 33 29 27 28 29 30 31 31 31 31 31 30 30 30 28 28 28 28 29 31 31 31 33 35 35 36
6 9 9 7 8 12 13 12 9 6 8 8 4 4 4 5 5 5 4 5 5 5 5 7 9 10 10 8 7 6 7 9 11 12 11 12 15 18 20 20 20 22 26 28 27 26 27 28 29 29 30 33 35 35 36 37 40 41 41 37 33 30 30 30 29 29 30 31 31 31 31 30 30 30 30 30 30 29 27 28 30 32 35 36 35 34
Wind_Direction
137 161 170 192 216 224 221 202 217 238 264 288 270 257 260 269 269 258 268 272 260 287 264 250 268 271 269 268 268 272 266 261 274 278 273 269 266 257 255 258 258 257 257 261 265 263 257 249 244 242 241 237 232 229 226 223 222 221 218 216 217 215 211 208 205 202 202 202 202 203 208 212 213 213 214 216 218 219 220 220 220 220 220 219 218 217
137 195 213 217 223 230 228 216 232 259 299 285 261 273 268 254 268 266 271 279 277 273 264 252 273 275 269 268 264 267 268 256 255 267 275 277 273 263 256 259 260 259 262 265 266 265 261 254 245 236 233 230 227 224 222 221 221 219 217 216 217 213 208 207 206 203 203 204 203 204 208 211 210 211 212 214 216 218 219 219 219 219 219 219 218 218
217 220 232 231 236 285 323 129 171 237 250 254 252 278 276 255 277 274 258 280 312 218 276 286 280 277 270 263 253 246 254 254 248 252 267 273 274 270 260 257 261 267 272 269 266 270 258 243 237 229 225 224 225 225 223 222 220 216 214 216 216 212 209 208 207 205 206 207 207 207 209 209 208 210 213 214 215 216 217 218 218 219 219 219 218 218
231 234 236 237 235 255 269 108 91 276 249 230 222 255 270 257 272 270 256 315 335 239 275 294 285 281 268 254 247 242 245 255 256 247 257 266 265 261 259 262 268 269 274 277 275 272 251 236 231 222 222 223 223 223 221 219 216 213 214 215 213 211 210 208 207 208 208 207 207 208 211 210 208 212 213 214 216 216 216 216 217 218 218 218 219 219
240 238 221 222 206 208 242 253 223 273 265 227 207 224 256 253 248 255 282 338 329 288 300 313 299 288 242 218 238 246 244 252 257 251 256 263 257 256 264 271 268 264 268 277 281 279 262 241 237 229 228 225 220 220 221 218 215 214 215 214 212 210 210 208 207 206 204 203 202 202 206 206 206 211 211 211 215 214 214 215 216 217 217 218 219 220
252 241 147 146 194 187 210 242 221 224 255 260 214 214 240 253 257 264 290 339 341 307 336 14 320 298 186 151 227 257 245 243 247 244 245 251 256 263 275 268 266 268 265 264 274 280 277 256 251 243 235 226 223 225 225 222 219 217 215 213 211 209 209 209 207 204 201 200 198 196 195 195 197 203 206 209 210 209 211 215 216 217 217 218 218 219
253 244 182 197 202 166 178 244 227 197 241 280 235 212 232 250 262 266 279 311 292 262 294 67 17 287 290 170 227 240 218 239 244 237 243 247 259 273 272 269 274 277 274 268 266 274 285 278 264 255 242 230 231 235 232 226 222 219 216 213 210 208 208 207 205 202 200 199 198 198 199 199 198 202 208 211 210 210 212 214 215 216 217 217 217 218
207 224 235 200 166 147 179 246 219 170 195 269 238 195 211 230 245 246 240 238 242 279 311 58 131 276 285 259 224 220 196 247 257 245 248 251 262 271 269 274 281 279 279 281 275 284 306 293 266 257 252 245 244 244 236 228 224 220 216 213 210 208 207 206 204 201 200 200 200 201 203 205 206 208 211 211 209 211 212 212 214 216 216 216 216 217
154 193 204 163 127 159 202 219 171 151 186 249 182 144 171 201 225 191 179 211 272 343 309 245 133 252 277 281 28 174 184 241 253 249 260 269 270 271 271 275 279 281 283 292 305 313 318 292 266 261 263 262 259 254 243 234 229 221 217 213 209 208 207 205 203 201 202 202 202 202 204 207 211 213 213 212 209 210 211 211 213 214 215 215 215 217
170 210 189 152 149 208 213 192 161 163 195 223 124 98 74 74 65 99 154 149 67 313 255 202 166 225 278 282 72 65 194 233 252 257 272 281 272 269 274 277 277 281 291 338 11 333 310 294 285 282 281 279 273 264 253 242 232 222 216 212 208 207 206 204 203 201 202 203 203 204 205 208 210 210 210 210 209 208 209 210 211 212 213 214 214 215
235 174 151 161 184 198 171 119 168 175 178 143 109 62 32 30 32 55 70 87 73 282 239 190 187 194 277 280 134 167 213 211 254 278 277 275 272 270 272 275 278 285 310 359 3 331 317 315 317 320 305 290 282 271 258 244 233 223 215 211 209 207 205 203 202 202 203 203 204 206 207 208 208 206 204 205 205 205 205 207 209 211 212 213 214 214
258 171 204 232 197 142 126 107 349 81 127 124 104 65 11 333 7 27 357 52 158 265 242 192 186 186 237 259 182 257 250 207 223 263 273 274 276 277 275 276 286 307 351 5 345 338 340 331 333 333 309 290 280 270 257 245 233 223 215 210 209 207 205 204 202 202 203 204 206 209 209 209 208 205 204 204 204 203 203 206 207 208 210 212 213 213
275 211 215 257 204 157 145 167 338 17 111 129 123 127 338 315 340 341 317 102 210 259 259 185 165 207 246 260 283 269 268 255 231 225 245 259 272 279 284 295 310 330 356 353 329 334 336 323 318 308 304 299 285 271 259 246 233 223 217 210 208 208 206 204 203 203 204 206 208 210 210 210 209 208 208 208 207 206 206 206 205 205 207 208 210 212
279 261 186 156 256 184 154 177 234 244 170 161 159 162 167 195 254 260 253 252 258 268 286 177 157 251 274 277 244 241 258 273 253 222 235 252 267 279 295 314 320 322 324 314 312 328 332 328 325 320 321 313 298 285 270 252 237 225 218 214 212 212 209 206 206 205 206 208 210 211 211 211 210 210 211 211 210 209 209 207 207 207 207 208 211 214
254 285 208 173 234 176 177 203 201 144 160 185 167 146 171 185 205 233 223 250 269 275 312 246 181 224 271 272 231 233 260 289 283 263 267 265 269 292 313 314 313 312 312 317 332 345 340 326 321 324 327 318 308 303 291 271 249 232 222 218 216 216 214 211 211 210 209 210 211 212 213 213 212 212 213 214 214 213 211 210 209 210 211 212 215 216
224 268 250 210 140 158 184 222 147 112 159 221 130 116 217 199 186 244 242 231 255 287 277 242 225 224 236 262 260 257 270 281 292 297 285 278 291 336 319 301 306 308 315 339 351 351 344 335 329 331 331 325 322 316 302 285 263 241 230 225 221 220 218 217 216 216 215 214 212 213 215 215 215 214 214 215 216 215 214 213 212 213 215 216 217 218
232 264 267 52 177 181 189 194 134 164 203 170 124 190 234 167 147 245 270 248 236 263 249 239 260 270 280 284 278 301 315 303 303 308 290 279 292 335 285 281 295 302 321 345 344 340 338 337 343 342 336 331 331 329 310 291 274 252 238 231 227 225 222 222 222 222 222 220 218 217 217 217 217 217 217 217 217 216 216 216 216 216 217 218 218 218
247 263 258 229 243 237 165 116 313 249 157 135 180 222 223 106 135 185 267 281 244 250 245 235 256 272 285 280 286 7 329 307 296 314 329 296 293 279 261 268 288 305 319 335 338 335 331 330 335 341 341 338 337 336 321 300 283 263 248 237 231 228 225 224 224 224 226 225 224 223 221 220 220 221 222 222 221 219 218 219 219 219 219 219 219 218
244 255 276 262 237 252 67 67 293 291 172 163 213 242 124 198 236 189 190 237 243 251 248 222 245 261 259 260 273 288 291 291 294 316 339 320 316 320 298 294 303 298 295 317 336 331 333 337 335 340 344 346 351 349 337 321 298 274 261 252 245 240 234 230 228 227 227 227 229 229 227 224 223 224 225 225 225 224 223 222 222 221 221 221 221 220
131 239 273 273 167 81 40 139 220 241 289 318 273 313 21 186 203 195 196 205 238 254 257 232 233 241 242 259 274 267 260 275 287 296 306 308 306 303 306 316 318 309 303 338 358 347 357 359 353 355 352 353 2 0 349 337 318 299 286 273 263 257 248 240 235 233 232 230 230 231 231 230 227 226 225 224 224 225 226 226 225 225 225 224 224 223
118 240 249 226 143 278 253 217 204 202 208 191 208 243 247 225 222 257 240 176 222 257 263 252 243 236 237 266 271 253 242 254 247 255 295 310 316 321 337 342 338 347 356 12 28 26 26 20 14 16 13 12 16 10 2 355 342 330 320 303 285 274 265 255 247 243 242 239 236 235 234 233 231 228 227 225 225 226 227 227 228 228 227 226 225 225
208 237 239 211 224 236 234 213 185 184 175 160 179 208 220 219 234 273 255 219 216 242 247 253 257 245 243 294 288 266 236 242 236 261 309 320 325 329 342 349 358 12 9 7 11 15 24 26 25 28 26 25 23 15 10 7 1 355 347 335 316 296 284 274 263 255 252 249 246 245 243 241 238 235 232 229 228 228 228 229 229 228 226 225 225 224
118 207 267 249 237 247 260 248 185 178 181 178 207 229 237 208 177 223 246 242 234 245 251 260 264 248 233 289 297 297 297 288 269 280 303 312 320 337 356 7 16 23 18 14 9 8 13 12 13 19 22 20 18 13 11 11 11 8 3 358 346 329 315 299 282 269 260 254 250 249 250 249 247 244 240 235 233 232 231 231 231 229 227 226 224 223
58 83 270 261 264 291 294 287 264 173 248 272 255 237 236 241 238 238 253 275 274 265 267 268 264 244 227 268 281 293 299 298 297 313 330 344 358 4 11 16 18 15 13 15 13 10 11 11 12 13 11 9 8 7 7 9 11 10 8 6 0 352 344 329 307 285 270 263 258 253 251 250 248 246 244 241 239 238 236 235 232 230 228 227 225 224
292 276 270 280 288 296 297 291 307 19 186 232 247 238 232 242 254 261 267 277 271 239 239 257 261 241 247 281 285 294 296 297 315 1 22 29 28 17 12 13 10 10 11 10 10 10 9 13 17 14 9 6 4 3 3 3 5 6 7 7 5 1 357 349 335 312 289 277 271 263 257 253 249 245 243 242 242 242 241 239 235 232 231 227 226 225
248 261 256 273 272 267 274 271 288 335 299 223 270 253 242 238 240 252 262 257 253 233 228 246 263 259 260 278 279 283 292 306 341 26 32 26 26 20 13 11 8 9 10 7 8 10 8 8 10 9 9 7 4 2 1 360 360 0 3 7 7 5 1 356 350 339 322 305 290 278 268 260 253 249 246 245 244 244 243 241 237 234 232 229 226 225
215 247 231 238 253 262 276 279 293 309 290 284 288 275 271 266 251 255 260 252 262 264 250 251 267 275 274 275 284 305 330 344 12 33 26 20 21 16 11 10 11 12 10 7 7 7 7 6 4 2 1 0 0 360 358 357 358 358 0 5 6 5 2 357 354 350 341 327 312 297 284 274 265 258 253 251 249 248 246 243 240 237 234 230 227 224
168 275 249 251 261 268 282 291 302 304 288 285 291 286 283 280 270 263 259 258 268 272 265 265 274 277 277 294 347 10 4 1 16 23 23 25 17 11 13 11 12 13 8 8 8 6 5 1 358 357 355 355 356 356 356 356 357 358 359 359 1 2 1 359 357 355 348 339 326 312 300 291 281 272 265 260 256 253 249 245 242 239 236 232 228 225
174 274 266 268 278 284 295 301 303 298 290 288 288 286 286 285 279 271 267 270 272 270 272 279 278 276 283 329 23 28 5 356 8 7 8 20 12 13 18 14 15 12 5 5 3 1 1 356 353 353 351 351 353 353 354 354 354 355 355 353 354 357 359 0 1 360 356 349 338 326 316 306 295 286 278 271 264 258 253 248 244 240 237 233 230 228
217 262 268 276 292 298 293 290 287 285 286 285 279 278 280 279 276 274 276 279 275 271 274 278 276 278 295 22 5 6 360 342 353 351 355 15 14 12 15 14 15 8 1 0 355 351 352 350 349 349 347 350 351 350 350 350 350 350 349 348 349 350 354 358 2 4 3 358 349 340 330 318 306 295 285 276 268 262 256 250 245 240 237 234 232 229
245 273 297 305 302 292 286 284 281 279 280 282 282 278 274 271 270 273 276 274 270 271 272 269 270 275 44 73 341 337 342 336 356 358 356 6 5 3 9 11 7 359 354 351 344 342 344 344 346 347 347 347 345 344 344 344 344 345 344 345 345 346 349 354 360 4 4 2 358 353 345 334 321 307 292 280 272 265 259 253 247 242 238 234 232 230
268 286 309 302 284 275 278 281 282 286 285 278 273 267 264 265 266 267 265 266 270 278 282 277 273 280 28 26 339 336 340 349 358 349 341 347 353 356 1 357 350 346 342 336 334 337 339 340 342 342 340 339 338 339 339 337 338 341 342 341 341 342 345 350 356 0 2 2 2 0 356 348 338 324 307 291 278 269 262 256 249 243 239 236 233 230
244 258 278 275 273 273 270 274 288 300 289 271 259 254 255 259 264 266 269 289 315 307 292 291 278 252 310 323 342 346 346 349 345 331 323 321 330 345 348 340 328 319 320 323 325 331 333 334 335 334 333 333 332 333 333 333 334 336 336 337 337 340 344 348 352 356 358 1 1 1 359 355 349 339 327 312 295 279 267 258 251 246 242 239 236 231
229 234 247 252 261 274 277 291 313 286 266 267 270 230 230 244 265 271 270 36 31 59 113 138 169 182 285 303 326 330 331 332 319 305 298 287 291 326 329 318 304 302 305 308 312 321 324 324 324 325 326 327 327 329 330 331 331 332 334 336 336 339 343 346 350 353 356 358 359 0 359 357 354 348 341 333 320 302 283 269 260 253 247 241 236 232
244 237 240 240 248 272 291 315 298 258 243 257 320 80 122 128 110 106 120 116 109 114 110 131 205 196 252 272 277 286 288 293 292 287 285 272 262 302 313 300 291 295 296 295 301 308 311 313 316 317 319 321 323 326 327 329 330 330 333 335 335 336 339 343 347 351 353 355 356 358 358 357 354 350 346 342 334 320 303 286 272 261 252 243 237 233
243 245 240 232 245 268 278 240 247 261 264 218 219 114 81 108 104 98 122 172 181 148 118 121 223 200 228 257 256 257 269 281 287 276 260 245 248 265 273 276 277 276 279 282 286 290 295 300 303 305 309 313 315 319 321 324 327 328 329 331 331 331 333 337 342 347 351 353 353 354 355 356 353 350 347 345 339 329 314 299 284 270 259 248 241 237
225 234 235 241 240 237 237 231 244 288 297 259 215 141 101 139 139 105 154 190 197 199 195 219 226 216 221 242 253 259 274 297 303 279 225 213 236 238 235 253 262 262 266 268 271 278 285 292 295 298 303 305 306 309 313 318 323 325 325 325 326 326 327 330 336 342 347 349 350 351 352 354 353 350 347 343 338 329 319 307 292 279 266 253 246 240
213 220 224 244 245 239 266 272 265 277 281 249 212 240 231 182 178 187 239 183 174 235 237 204 215 232 224 232 251 262 285 302 301 289 211 208 232 237 237 247 249 252 259 261 266 275 281 288 292 295 298 299 297 301 307 314 319 321 320 320 322 322 321 322 329 336 339 341 345 347 349 351 351 348 345 342 336 328 321 311 299 286 272 259 251 245
191 217 221 241 260 260 273 280 268 266 271 235 221 237 242 206 169 156 312 270 159 271 249 196 210 238 229 233 244 232 209 277 288 289 227 206 221 238 249 256 252 253 258 260 264 271 278 285 289 291 294 293 292 298 306 311 315 317 315 315 316 314 313 316 323 329 331 333 338 342 345 347 348 346 344 340 335 329 322 314 305 293 279 266 257 251
71 229 211 225 251 252 253 260 258 258 257 229 223 237 248 196 124 84 302 280 171 257 235 190 212 238 230 236 239 201 211 247 271 285 262 223 222 239 252 260 260 258 259 261 267 276 284 290 290 291 293 292 292 299 304 307 310 309 306 308 308 305 306 312 319 323 324 326 330 334 337 340 342 342 341 338 335 330 324 317 308 298 286 274 264 256
318 256 193 207 236 242 246 256 262 256 246 225 218 228 239 116 89 275 272 260 215 276 232 186 214 239 231 235 231 210 225 236 249 271 273 264 257 254 257 261 262 264 266 268 275 284 289 290 289 289 291 291 292 295 297 301 303 299 299 302 300 297 302 310 316 319 321 321 323 326 329 331 333 335 335 335 333 329 324 318 310 299 289 280 270 261
252 253 249 228 231 234 234 250 272 278 255 179 198 223 205 116 259 250 245 270 321 297 258 198 217 237 240 242 239 237 244 248 253 264 269 270 267 262 264 265 262 265 271 275 283 288 288 288 289 290 291 293 293 292 293 296 294 291 295 296 293 296 303 309 313 316 318 317 318 320 321 323 325 327 328 329 328 326 322 319 311 301 291 281 271 262
233 253 272 233 216 248 254 245 261 271 249 132 97 296 221 178 228 255 296 316 301 281 254 228 228 240 251 254 251 251 254 258 264 267 266 266 267 268 270 269 265 268 274 281 288 291 290 288 289 289 290 292 292 291 292 292 289 289 291 289 290 297 304 307 311 315 314 313 313 315 315 316 317 319 319 320 320 317 315 313 308 299 291 280 269 260
238 237 257 247 225 235 241 233 228 237 246 192 194 277 259 242 263 292 307 305 297 265 232 241 251 252 256 261 261 260 260 261 266 269 267 265 271 279 280 275 274 280 285 288 290 294 295 292 291 292 292 292 291 290 290 288 287 288 287 285 291 298 301 304 309 311 309 308 308 309 310 311 312 312 311 311 311 308 305 304 300 292 284 275 264 255
238 224 233 254 253 228 222 247 253 266 305 271 234 252 269 277 289 293 287 284 284 260 236 256 272 271 267 264 263 262 263 265 268 272 274 277 284 289 290 287 283 284 289 291 291 292 292 290 289 290 290 290 290 289 287 286 285 284 284 288 294 298 299 302 306 305 302 302 303 304 306 307 307 306 304 303 301 296 294 293 287 280 275 266 255 247
259 257 250 271 274 265 257 263 270 289 297 281 272 275 277 278 286 290 279 257 257 262 271 278 282 284 284 281 276 270 270 278 285 289 294 303 305 301 298 295 291 289 289 289 289 290 291 290 289 287 286 287 288 287 286 286 285 282 285 291 295 296 297 301 302 299 296 296 297 300 302 304 303 302 299 297 293 288 285 282 274 268 263 256 246 242
257 248 240 252 264 267 266 263 263 267 270 271 274 277 276 276 279 278 264 255 267 286 305 319 321 316 317 325 324 305 298 306 315 312 311 313 306 300 299 297 294 292 289 287 287 290 292 292 290 287 287 287 288 287 286 287 286 285 288 292 294 295 298 300 299 296 294 294 295 297 299 299 298 298 297 293 287 281 277 273 266 258 252 246 239 236
255 212 208 235 247 251 258 263 264 257 259 265 268 269 274 281 283 283 289 314 334 342 345 356 5 358 350 353 350 327 313 312 310 304 303 302 294 291 291 290 290 291 291 290 290 292 293 292 289 288 288 287 287 289 289 288 288 289 291 292 293 296 300 301 297 294 293 293 294 294 294 293 292 293 293 291 284 276 270 265 259 251 248 246 240 235
274 253 214 223 247 259 263 268 273 272 269 268 266 266 279 298 302 316 353 17 19 7 354 350 354 355 336 323 320 318 308 301 299 298 294 292 290 289 289 290 293 294 293 293 294 296 296 293 291 290 289 287 288 291 292 291 290 291 290 290 293 298 302 300 297 295 293 291 291 290 289 289 288 287 287 286 283 277 269 265 259 252 252 253 249 244
237 255 253 250 260 265 264 264 268 272 273 275 279 296 25 20 8 10 14 16 14 3 348 336 328 323 313 303 311 318 307 299 301 302 298 294 292 292 293 296 297 296 295 296 298 299 296 293 292 291 289 288 290 292 292 291 291 290 289 290 294 300 302 300 297 294 290 288 286 285 285 286 286 285 285 283 282 278 274 270 265 258 255 256 254 252
226 244 252 252 253 262 268 269 271 269 268 280 317 68 72 32 27 34 16 356 348 344 339 330 322 320 316 314 316 315 301 297 302 304 301 295 293 293 295 298 297 296 296 299 300 300 298 297 295 293 290 290 292 292 292 292 291 290 290 292 296 300 299 297 294 290 286 284 283 282 283 283 283 283 283 281 279 277 275 273 269 262 257 254 253 251